Weather History for Howell, MI

Change the Weather History Date:

Friday, December 21, 2012

  Actual Average Record
Temperature  
Mean Temperature 32 °F -  
Max Temperature 34 °F 30 °F 42 °F (2003)
Min Temperature 29 °F 18 °F 3 °F (2008)
Degree Days  
Heating Degree Days 34    
Moisture  
Dew Point 26 °F    
Average Humidity 80    
Maximum Humidity 95    
Minimum Humidity 62    
Precipitation  
Precipitation 0.00 in - - ()
Sea Level Pressure  
Sea Level Pressure 29.47 in    
Wind  
Wind Speed 13 mph (NW)    
Max Wind Speed 29 mph    
Max Gust Speed 41 mph    
Visibility 6 miles    
Events Snow    
Averages and records for this station are not official NWS values.
T = Trace of Precipitation, MM = Missing Value Source: NWS Daily Summary

Daily Weather History Graph

Daily Weather History Graph

Search for Another Location

Airport:

Trip Planner

Search our weather history database for the weather conditions in past years. The results will help you decide how hot, cold, wet, or windy it might be!

Date:

Astronomy

Dec. 21, 2012 Rise Set
Actual Time 8:02 AM EST 5:05 PM EST
Civil Twilight 7:30 AM EST 5:37 PM EST
Nautical Twilight 6:55 AM EST 6:13 PM EST
Astronomical Twilight 6:20 AM EST 6:47 PM EST
Moon 12:57 PM EST (12/21) 1:43 AM EST (12/21)
Length of Visible Light 10h 07m
Length of Day
9h 02m
Waxing Gibbous, 64% of the Moon is Illuminated
Dec 21
Waxing Gibbous
Dec 28
Full
Jan 4
Last Quarter
Jan 11
New
Jan 18
First Quarter

Hourly Weather History & Observations

Time (EST) Temp. Windchill Dew Point Humidity Pressure Visibility Wind Dir Wind Speed Gust Speed Precip Events Conditions
12:15 AM 34.3 °F 26.5 °F 31.1 °F 88% 29.16 in 7.0 mi South 10.4 mph - N/A   Overcast
12:35 AM 34.2 °F 26.8 °F 30.9 °F 88% 29.16 in 10.0 mi South 9.2 mph - N/A   Overcast
12:54 AM 34.2 °F 26.8 °F 30.7 °F 87% 29.16 in 10.0 mi South 9.2 mph - N/A   Overcast
1:15 AM 34.0 °F 27.2 °F 30.7 °F 88% 29.16 in 10.0 mi South 8.1 mph - N/A   Overcast
1:34 AM 34.0 °F 27.2 °F 30.7 °F 88% 29.16 in 7.0 mi South 8.1 mph - N/A   Overcast
1:54 AM 33.4 °F 28.1 °F 30.7 °F 90% 29.16 in 4.0 mi South 5.8 mph - N/A Snow Light Snow
2:15 AM 33.3 °F 30.2 °F 30.9 °F 91% 29.17 in 3.0 mi SSW 3.5 mph - N/A Snow Light Snow
2:34 AM 33.1 °F - 30.9 °F 92% 29.17 in 5.0 mi Calm Calm - N/A Snow Light Snow
2:54 AM 32.9 °F - 30.9 °F 92% 29.18 in 10.0 mi Calm Calm - N/A   Overcast
3:15 AM 32.9 °F - 31.1 °F 93% 29.17 in 10.0 mi Calm Calm - N/A   Overcast
3:34 AM 32.9 °F - 31.1 °F 93% 29.19 in 10.0 mi Calm Calm - N/A   Overcast
3:54 AM 32.9 °F - 31.1 °F 93% 29.19 in 3.0 mi Calm Calm - N/A Snow Light Snow
4:15 AM 32.9 °F - 31.1 °F 93% 29.19 in 1.5 mi Calm Calm - N/A Snow Light Snow
4:34 AM 32.9 °F - 31.1 °F 93% 29.19 in 1.2 mi Calm Calm - N/A Snow Snow
4:55 AM 32.5 °F 29.3 °F 31.1 °F 94% 29.19 in 1.2 mi SW 3.5 mph - N/A Snow Light Snow
5:15 AM 32.5 °F 28.1 °F 31.3 °F 95% 29.19 in 2.0 mi WSW 4.6 mph - N/A Snow Light Snow
5:34 AM 32.9 °F 25.9 °F 31.5 °F 94% 29.20 in 2.0 mi WSW 8.1 mph - N/A Snow Light Snow
5:55 AM 33.4 °F 23.9 °F 32.0 °F 94% 29.20 in 1.8 mi WNW 13.8 mph 18.4 mph N/A Snow Light Snow
6:15 AM 33.3 °F 21.8 °F 31.8 °F 94% 29.22 in 1.5 mi NW 19.6 mph 28.8 mph N/A Snow Light Snow
6:34 AM 32.9 °F 21.6 °F 31.1 °F 93% 29.24 in 1.5 mi NW 18.4 mph 26.5 mph N/A Snow Light Snow
6:55 AM 32.2 °F 20.7 °F 30.0 °F 92% 29.25 in 2.5 mi NW 18.4 mph 28.8 mph N/A Snow Light Snow
7:15 AM 32.0 °F 21.2 °F 29.8 °F 92% 29.27 in 1.5 mi WNW 16.1 mph 23.0 mph N/A Snow Light Snow
7:34 AM 31.5 °F 19.1 °F 28.6 °F 89% 29.28 in 2.0 mi NW 20.7 mph 27.6 mph N/A Snow Light Snow
7:55 AM 31.5 °F 19.1 °F 28.4 °F 88% 29.30 in 1.2 mi NW 20.7 mph 33.4 mph N/A Snow Snow
8:14 AM 30.7 °F 19.2 °F 27.5 °F 88% 29.31 in 0.8 mi NW 17.3 mph 31.1 mph N/A Snow Snow
8:34 AM 30.2 °F 19.3 °F 27.3 °F 89% 29.33 in 0.2 mi NW 15.0 mph 26.5 mph N/A Snow Snow
8:54 AM 30.2 °F 17.8 °F 27.3 °F 89% 29.34 in 0.8 mi NW 19.6 mph 31.1 mph N/A Snow Light Snow
9:14 AM 30.2 °F 16.8 °F 27.0 °F 88% 29.35 in 0.8 mi NW 23.0 mph 28.8 mph N/A Snow Snow
9:35 AM 30.0 °F 18.3 °F 26.6 °F 87% 29.37 in 0.5 mi NNW 17.3 mph 34.5 mph N/A Snow Snow
9:54 AM 30.2 °F 18.9 °F 27.1 °F 88% 29.38 in 0.5 mi NNW 16.1 mph 25.3 mph N/A Snow Snow
10:14 AM 30.6 °F 18.6 °F 27.3 °F 88% 29.40 in 0.2 mi NW 18.4 mph 24.2 mph N/A Snow Light Snow
10:35 AM 29.7 °F 16.4 °F 25.7 °F 85% 29.42 in 0.5 mi NW 21.9 mph 33.4 mph N/A Snow Light Snow
10:54 AM 29.3 °F 15.6 °F 25.5 °F 86% 29.43 in 1.8 mi NW 23.0 mph 34.5 mph N/A Snow Light Snow
11:14 AM 29.7 °F 16.7 °F 24.8 °F 82% 29.44 in 4.0 mi NW 20.7 mph 27.6 mph N/A   Overcast
11:35 AM 29.8 °F 18.4 °F 24.6 °F 81% 29.45 in 3.0 mi NW 16.1 mph 31.1 mph N/A   Haze
11:54 AM 30.0 °F 16.9 °F 24.4 °F 80% 29.46 in 4.0 mi NNW 21.9 mph 32.2 mph N/A   Haze
12:14 PM 29.8 °F 17.3 °F 23.5 °F 77% 29.47 in 5.0 mi NW 19.6 mph 31.1 mph N/A   Haze
12:34 PM 30.0 °F 19.1 °F 23.9 °F 78% 29.48 in 7.0 mi NNW 15.0 mph 27.6 mph N/A   Overcast
12:54 PM 30.2 °F 18.9 °F 24.1 °F 78% 29.49 in 5.0 mi NW 16.1 mph 26.5 mph N/A Snow Light Snow
1:14 PM 30.2 °F 18.1 °F 23.9 °F 77% 29.49 in 7.0 mi NW 18.4 mph 28.8 mph N/A   Overcast
1:34 PM 30.7 °F 17.2 °F 23.4 °F 74% 29.50 in 7.0 mi NW 24.2 mph 34.5 mph N/A   Overcast
1:55 PM 31.1 °F 17.4 °F 23.2 °F 72% 29.52 in 7.0 mi NW 25.3 mph 35.7 mph N/A   Overcast
2:14 PM 31.5 °F 18.2 °F 23.0 °F 71% 29.53 in 7.0 mi NW 24.2 mph 34.5 mph N/A   Overcast
2:34 PM 31.8 °F 18.7 °F 23.2 °F 70% 29.54 in 10.0 mi NW 24.2 mph 33.4 mph N/A   Overcast
2:55 PM 32.0 °F 19.2 °F 23.0 °F 69% 29.55 in 10.0 mi NW 23.0 mph 34.5 mph N/A   Overcast
3:14 PM 32.0 °F 20.5 °F 23.4 °F 70% 29.57 in 7.0 mi NNW 18.4 mph 28.8 mph N/A   Overcast
3:34 PM 32.0 °F 20.5 °F 24.1 °F 73% 29.58 in 10.0 mi NW 18.4 mph 27.6 mph N/A   Overcast
3:54 PM 32.2 °F 20.0 °F 24.6 °F 74% 29.59 in 4.0 mi NW 20.7 mph 31.1 mph N/A   Haze
4:14 PM 32.0 °F 19.8 °F 25.5 °F 77% 29.61 in 2.5 mi NW 20.7 mph 28.8 mph N/A Snow Light Snow
4:35 PM 32.0 °F 20.1 °F 25.9 °F 78% 29.63 in 1.8 mi NW 19.6 mph 32.2 mph N/A Snow Light Snow
4:54 PM 32.0 °F 18.4 °F 24.8 °F 75% 29.63 in 3.0 mi NW 26.5 mph 36.8 mph N/A   Haze
5:14 PM 32.2 °F 19.7 °F 24.6 °F 74% 29.65 in 10.0 mi NW 21.9 mph 29.9 mph N/A   Overcast
5:35 PM 32.4 °F 18.9 °F 24.3 °F 72% 29.66 in 10.0 mi NNW 26.5 mph 34.5 mph N/A   Overcast
5:54 PM 32.4 °F 20.9 °F 24.6 °F 73% 29.68 in 10.0 mi NW 18.4 mph 29.9 mph N/A   Overcast
6:15 PM 32.4 °F 20.3 °F 24.4 °F 73% 29.69 in 10.0 mi NW 20.7 mph 33.4 mph N/A   Overcast
6:35 PM 32.5 °F 20.5 °F 24.3 °F 72% 29.70 in 10.0 mi NW 20.7 mph 34.5 mph N/A   Overcast
6:54 PM 32.5 °F 20.5 °F 23.9 °F 70% 29.72 in 10.0 mi NNW 20.7 mph 29.9 mph N/A   Overcast
7:15 PM 32.5 °F 20.8 °F 23.9 °F 70% 29.73 in 10.0 mi NW 19.6 mph 31.1 mph N/A   Overcast
7:35 PM 32.5 °F 20.5 °F 23.5 °F 69% 29.74 in 10.0 mi NW 20.7 mph 38.0 mph N/A   Overcast
7:54 PM 32.4 °F 20.9 °F 23.0 °F 68% 29.75 in 10.0 mi NW 18.4 mph 34.5 mph N/A   Overcast
8:15 PM 32.2 °F 18.1 °F 22.5 °F 67% 29.76 in 10.0 mi NW 28.8 mph 34.5 mph N/A   Overcast
8:34 PM 32.0 °F 18.9 °F 21.9 °F 66% 29.78 in 7.0 mi NW 24.2 mph 38.0 mph N/A   Overcast
8:54 PM 32.0 °F 18.6 °F 21.9 °F 66% 29.79 in 10.0 mi NW 25.3 mph 41.4 mph N/A   Overcast
9:15 PM 32.0 °F 18.1 °F 21.9 °F 66% 29.80 in 10.0 mi NW 27.6 mph 38.0 mph N/A   Overcast
9:34 PM 32.0 °F 19.2 °F 21.2 °F 64% 29.81 in 10.0 mi NW 23.0 mph 29.9 mph N/A   Overcast
9:54 PM 32.0 °F 19.2 °F 21.0 °F 64% 29.82 in 10.0 mi NW 23.0 mph 31.1 mph N/A   Overcast
10:15 PM 31.8 °F 19.0 °F 21.0 °F 64% 29.83 in 10.0 mi NW 23.0 mph 33.4 mph N/A   Overcast
10:34 PM 31.8 °F 21.0 °F 20.8 °F 64% 29.84 in 10.0 mi NW 16.1 mph 36.8 mph N/A   Overcast
10:55 PM 31.1 °F 18.9 °F 20.3 °F 64% 29.85 in 10.0 mi NW 19.6 mph 29.9 mph N/A   Mostly Cloudy
11:14 PM 31.1 °F 19.7 °F 20.3 °F 64% 29.86 in 10.0 mi NW 17.3 mph 33.4 mph N/A   Overcast
11:34 PM 30.9 °F 20.2 °F 20.1 °F 64% 29.87 in 10.0 mi NW 15.0 mph 25.3 mph N/A   Overcast
11:54 PM 31.1 °F 20.1 °F 19.4 °F 62% 29.88 in 10.0 mi NW 16.1 mph 32.2 mph N/A   Mostly Cloudy